AVA635 SKBO-SKCL

Flight info

Callsign AVA635
Flight time 0h 38m
Altitude 24000
Route KAMIS6A KAMIS W16 GIR R564 MANGA MANGA1B
Aircraft A319/M-SDE3FGHIRWY/LB1

Departure

Time 2026-04-25 02:15
Airport El Dorado International Airport (SKBO)

Arrival

Time 2026-04-25 02:54
Airport Alfonso Bonilla Aragon International Airport (SKCL)
Time Latitude Longitude Altitude Speed Heading
2026-04-25 01:15 4.69831 -74.14583 8371 ft 0 kts 66°
2026-04-25 01:43 4.69828 -74.14590 8371 ft 2 kts 66°
2026-04-25 01:43 4.69822 -74.14604 8370 ft 2 kts 57°
2026-04-25 01:43 4.69813 -74.14617 8371 ft 2 kts 53°
2026-04-25 01:43 4.69801 -74.14625 8370 ft 2 kts 359°
2026-04-25 01:44 4.69787 -74.14620 8370 ft 2 kts 288°
2026-04-25 01:44 4.69786 -74.14617 8370 ft 2 kts 282°
2026-04-25 01:44 4.69786 -74.14616 8370 ft 2 kts 282°
2026-04-25 01:45 4.69787 -74.14622 8370 ft 0 kts 282°
2026-04-25 01:47 4.69790 -74.14635 8370 ft 4 kts 282°
2026-04-25 01:47 4.69794 -74.14647 8370 ft 1 kts 304°
2026-04-25 01:47 4.69812 -74.14668 8370 ft 7 kts 310°
2026-04-25 01:48 4.69854 -74.14721 8371 ft 9 kts 308°
2026-04-25 01:48 4.69861 -74.14730 8370 ft 3 kts 308°
2026-04-25 01:48 4.69864 -74.14733 8370 ft 0 kts 308°
2026-04-25 01:48 4.69872 -74.14744 8371 ft 5 kts 307°
2026-04-25 01:49 4.69890 -74.14796 8370 ft 11 kts 258°
2026-04-25 01:49 4.69822 -74.14868 8371 ft 18 kts 230°
2026-04-25 01:49 4.69848 -74.14962 8371 ft 0 kts 306°
2026-04-25 01:49 4.69864 -74.14984 8370 ft 8 kts 306°
2026-04-25 01:50 4.69910 -74.15046 8371 ft 15 kts 306°
2026-04-25 01:50 4.69989 -74.15145 8371 ft 22 kts 309°
2026-04-25 01:50 4.70095 -74.15282 8370 ft 27 kts 306°
2026-04-25 01:50 4.70132 -74.15332 8370 ft 10 kts 306°
2026-04-25 01:51 4.70189 -74.15408 8370 ft 17 kts 306°
2026-04-25 01:51 4.70275 -74.15525 8370 ft 24 kts 306°
2026-04-25 01:51 4.70390 -74.15681 8370 ft 31 kts 306°
2026-04-25 01:51 4.70504 -74.15834 8371 ft 29 kts 307°
2026-04-25 01:52 4.70637 -74.16013 8371 ft 36 kts 307°
2026-04-25 01:52 4.70760 -74.16177 8371 ft 28 kts 307°
2026-04-25 01:52 4.70881 -74.16336 8371 ft 23 kts 307°
2026-04-25 01:52 4.70957 -74.16435 8371 ft 15 kts 307°
2026-04-25 01:53 4.70998 -74.16489 8370 ft 5 kts 307°
2026-04-25 01:53 4.71031 -74.16533 8371 ft 9 kts 307°
2026-04-25 01:53 4.71047 -74.16554 8370 ft 5 kts 307°
2026-04-25 01:53 4.71057 -74.16567 8370 ft 0 kts 307°
2026-04-25 01:57 4.71071 -74.16585 8371 ft 7 kts 307°
2026-04-25 01:57 4.71083 -74.16601 8371 ft 0 kts 307°
2026-04-25 01:57 4.71087 -74.16606 8371 ft 0 kts 307°
2026-04-25 01:58 4.71096 -74.16618 8371 ft 1 kts 307°
2026-04-25 01:58 4.71114 -74.16642 8371 ft 7 kts 308°
2026-04-25 01:58 4.71118 -74.16647 8371 ft 0 kts 308°
2026-04-25 01:58 4.71119 -74.16648 8371 ft 2 kts 308°
2026-04-25 01:59 4.71132 -74.16665 8371 ft 1 kts 308°
2026-04-25 01:59 4.71136 -74.16670 8371 ft 0 kts 309°
2026-04-25 01:59 4.71140 -74.16674 8371 ft 0 kts 309°
2026-04-25 02:00 4.71141 -74.16676 8371 ft 2 kts 309°
2026-04-25 02:00 4.71144 -74.16680 8371 ft 0 kts 309°
2026-04-25 02:00 4.71145 -74.16680 8371 ft 1 kts 309°
2026-04-25 02:01 4.71159 -74.16698 8371 ft 0 kts 309°
2026-04-25 02:01 4.71169 -74.16712 8371 ft 0 kts 306°
2026-04-25 02:05 4.71179 -74.16726 8371 ft 1 kts 306°
2026-04-25 02:05 4.71189 -74.16738 8371 ft 0 kts 306°
2026-04-25 02:06 4.71189 -74.16739 8371 ft 0 kts 306°
2026-04-25 02:06 4.71190 -74.16740 8371 ft 1 kts 306°
2026-04-25 02:06 4.71191 -74.16741 8371 ft 0 kts 306°
2026-04-25 02:07 4.71192 -74.16743 8371 ft 2 kts 306°
2026-04-25 02:07 4.71196 -74.16749 8371 ft 1 kts 306°
2026-04-25 02:07 4.71213 -74.16771 8371 ft 7 kts 308°
2026-04-25 02:08 4.71234 -74.16798 8371 ft 7 kts 308°
2026-04-25 02:08 4.71249 -74.16819 8371 ft 6 kts 297°
2026-04-25 02:08 4.71253 -74.16834 8371 ft 0 kts 283°
2026-04-25 02:10 4.71253 -74.16839 8371 ft 3 kts 271°
2026-04-25 02:11 4.71237 -74.16863 8371 ft 3 kts 223°
2026-04-25 02:11 4.71231 -74.16867 8371 ft 0 kts 218°
2026-04-25 02:12 4.71224 -74.16872 8371 ft 4 kts 218°
2026-04-25 02:12 4.71180 -74.16893 8371 ft 10 kts 193°
2026-04-25 02:13 4.71095 -74.16887 8371 ft 10 kts 173°
2026-04-25 02:13 4.71060 -74.16882 8371 ft 8 kts 173°
2026-04-25 02:13 4.71020 -74.16866 8372 ft 3 kts 118°
2026-04-25 02:13 4.71019 -74.16865 8372 ft 0 kts 122°
2026-04-25 02:14 4.71003 -74.16840 8372 ft 11 kts 125°
2026-04-25 02:14 4.70876 -74.16669 8372 ft 55 kts 127°
2026-04-25 02:15 4.70536 -74.16227 8371 ft 106 kts 127°
2026-04-25 02:15 4.69984 -74.15498 8372 ft 156 kts 127°
2026-04-25 02:15 4.69251 -74.14532 8592 ft 181 kts 129°
2026-04-25 02:15 4.68472 -74.13547 9239 ft 181 kts 142°
2026-04-25 02:16 4.67344 -74.13140 9806 ft 173 kts 188°
2026-04-25 02:16 4.66184 -74.13503 10153 ft 183 kts 221°
2026-04-25 02:16 4.65354 -74.14522 10451 ft 201 kts 243°
2026-04-25 02:16 4.64602 -74.15787 10834 ft 220 kts 242°
2026-04-25 02:17 4.63806 -74.17108 11677 ft 222 kts 242°
2026-04-25 02:17 4.63005 -74.18427 12685 ft 221 kts 243°
2026-04-25 02:17 4.62205 -74.19733 13679 ft 220 kts 243°
2026-04-25 02:17 4.61519 -74.21081 14605 ft 217 kts 257°
2026-04-25 02:18 4.61182 -74.22619 15049 ft 238 kts 261°
2026-04-25 02:18 4.60856 -74.24324 15350 ft 261 kts 261°
2026-04-25 02:18 4.60508 -74.26190 15578 ft 285 kts 261°
2026-04-25 02:18 4.59871 -74.28140 15944 ft 305 kts 247°
2026-04-25 02:19 4.58863 -74.30030 16670 ft 310 kts 247°
2026-04-25 02:19 4.57875 -74.31947 17495 ft 310 kts 248°
2026-04-25 02:19 4.56903 -74.33871 18300 ft 310 kts 248°
2026-04-25 02:19 4.55934 -74.35797 19109 ft 310 kts 249°
2026-04-25 02:20 4.54962 -74.37724 19767 ft 311 kts 248°
2026-04-25 02:20 4.53985 -74.39645 19963 ft 309 kts 248°
2026-04-25 02:20 4.53007 -74.41558 20005 ft 309 kts 248°
2026-04-25 02:20 4.52030 -74.43469 20016 ft 309 kts 248°
2026-04-25 02:21 4.51044 -74.45404 20482 ft 314 kts 248°
2026-04-25 02:21 4.50048 -74.47353 21134 ft 316 kts 248°
2026-04-25 02:21 4.49042 -74.49321 21758 ft 319 kts 248°
2026-04-25 02:21 4.48028 -74.51306 22348 ft 323 kts 248°
2026-04-25 02:22 4.47003 -74.53314 22895 ft 326 kts 248°
2026-04-25 02:22 4.45966 -74.55343 23412 ft 330 kts 248°
2026-04-25 02:22 4.44915 -74.57394 23872 ft 333 kts 248°
2026-04-25 02:22 4.43859 -74.59450 23987 ft 330 kts 247°
2026-04-25 02:23 4.42830 -74.61442 24015 ft 316 kts 248°
2026-04-25 02:23 4.41837 -74.63363 24011 ft 308 kts 248°
2026-04-25 02:23 4.40864 -74.65257 24013 ft 306 kts 248°
2026-04-25 02:23 4.39898 -74.67146 24010 ft 305 kts 248°
2026-04-25 02:24 4.38936 -74.69033 24011 ft 305 kts 248°
2026-04-25 02:24 4.37969 -74.70920 24010 ft 305 kts 248°
2026-04-25 02:24 4.37000 -74.72803 24011 ft 305 kts 248°
2026-04-25 02:24 4.36030 -74.74685 24011 ft 305 kts 248°
2026-04-25 02:25 4.35061 -74.76565 24011 ft 305 kts 248°
2026-04-25 02:25 4.34091 -74.78448 24010 ft 304 kts 248°
2026-04-25 02:25 4.33121 -74.80330 24012 ft 304 kts 248°
2026-04-25 02:25 4.32154 -74.82203 24006 ft 304 kts 248°
2026-04-25 02:26 4.31184 -74.84081 24003 ft 304 kts 248°
2026-04-25 02:26 4.30216 -74.85958 23994 ft 303 kts 249°
2026-04-25 02:26 4.29249 -74.87836 24002 ft 305 kts 248°
2026-04-25 02:26 4.28277 -74.89723 24005 ft 305 kts 248°
2026-04-25 02:27 4.27308 -74.91608 24007 ft 305 kts 248°
2026-04-25 02:27 4.26341 -74.93491 24008 ft 305 kts 248°
2026-04-25 02:27 4.25370 -74.95373 24011 ft 305 kts 248°
2026-04-25 02:27 4.24397 -74.97255 24013 ft 305 kts 248°
2026-04-25 02:28 4.23425 -74.99138 24006 ft 305 kts 248°
2026-04-25 02:28 4.22455 -75.01022 24005 ft 304 kts 248°
2026-04-25 02:28 4.21487 -75.02903 24009 ft 305 kts 248°
2026-04-25 02:28 4.20466 -75.04760 23991 ft 307 kts 243°
2026-04-25 02:29 4.19192 -75.06488 23997 ft 310 kts 240°
2026-04-25 02:29 4.17898 -75.08214 24000 ft 310 kts 240°
2026-04-25 02:29 4.16605 -75.09942 24003 ft 311 kts 240°
2026-04-25 02:29 4.15312 -75.11668 24004 ft 310 kts 240°
2026-04-25 02:30 4.14022 -75.13387 24010 ft 309 kts 240°
2026-04-25 02:30 4.12732 -75.15109 24009 ft 310 kts 240°
2026-04-25 02:30 4.11444 -75.16828 24011 ft 309 kts 240°
2026-04-25 02:30 4.10157 -75.18547 24009 ft 309 kts 240°
2026-04-25 02:31 4.08868 -75.20273 24006 ft 310 kts 240°
2026-04-25 02:31 4.07582 -75.21994 24002 ft 309 kts 240°
2026-04-25 02:31 4.06299 -75.23714 24000 ft 309 kts 240°
2026-04-25 02:31 4.05013 -75.25434 23999 ft 309 kts 240°
2026-04-25 02:32 4.03722 -75.27155 24000 ft 310 kts 240°
2026-04-25 02:32 4.02431 -75.28874 24004 ft 310 kts 240°
2026-04-25 02:32 4.01139 -75.30597 24016 ft 310 kts 241°
2026-04-25 02:32 3.99852 -75.32317 24013 ft 309 kts 240°
2026-04-25 02:33 3.98566 -75.34039 24019 ft 309 kts 240°
2026-04-25 02:33 3.97283 -75.35759 24009 ft 309 kts 240°
2026-04-25 02:33 3.96000 -75.37471 23992 ft 306 kts 240°
2026-04-25 02:33 3.94722 -75.39176 23993 ft 308 kts 240°
2026-04-25 02:34 3.93434 -75.40897 24007 ft 311 kts 240°
2026-04-25 02:34 3.92139 -75.42628 24008 ft 312 kts 241°
2026-04-25 02:34 3.90841 -75.44359 24014 ft 311 kts 240°
2026-04-25 02:34 3.89546 -75.46085 24013 ft 311 kts 240°
2026-04-25 02:35 3.88252 -75.47811 24011 ft 310 kts 240°
2026-04-25 02:35 3.86985 -75.49550 24010 ft 307 kts 244°
2026-04-25 02:35 3.86020 -75.51428 24009 ft 303 kts 250°
2026-04-25 02:35 3.85127 -75.53333 24008 ft 303 kts 250°
2026-04-25 02:36 3.84232 -75.55242 23949 ft 304 kts 250°
2026-04-25 02:36 3.83334 -75.57153 23714 ft 302 kts 250°
2026-04-25 02:36 3.82442 -75.59047 23459 ft 300 kts 250°
2026-04-25 02:36 3.81556 -75.60921 23199 ft 297 kts 250°
2026-04-25 02:37 3.80673 -75.62787 22946 ft 296 kts 250°
2026-04-25 02:37 3.79795 -75.64638 22696 ft 294 kts 250°
2026-04-25 02:37 3.78923 -75.66480 22443 ft 293 kts 250°
2026-04-25 02:37 3.78056 -75.68316 22193 ft 293 kts 250°
2026-04-25 02:38 3.77187 -75.70154 21942 ft 292 kts 250°
2026-04-25 02:38 3.76321 -75.71988 21680 ft 291 kts 250°
2026-04-25 02:38 3.75463 -75.73805 21426 ft 289 kts 250°
2026-04-25 02:38 3.74609 -75.75614 21173 ft 287 kts 250°
2026-04-25 02:39 3.73759 -75.77412 20938 ft 286 kts 249°
2026-04-25 02:39 3.72912 -75.79203 20674 ft 283 kts 250°
2026-04-25 02:39 3.72073 -75.80975 20422 ft 282 kts 250°
2026-04-25 02:39 3.71236 -75.82746 20177 ft 281 kts 250°
2026-04-25 02:40 3.70403 -75.84508 19926 ft 280 kts 250°
2026-04-25 02:40 3.69583 -75.86238 19679 ft 272 kts 250°
2026-04-25 02:40 3.68782 -75.87930 19358 ft 267 kts 250°
2026-04-25 02:40 3.67999 -75.89581 19018 ft 257 kts 250°
2026-04-25 02:41 3.67241 -75.91182 18697 ft 253 kts 250°
2026-04-25 02:41 3.66489 -75.92779 18383 ft 255 kts 250°
2026-04-25 02:41 3.65733 -75.94390 18050 ft 256 kts 250°
2026-04-25 02:41 3.64977 -75.95992 17729 ft 254 kts 250°
2026-04-25 02:42 3.64226 -75.97580 17403 ft 253 kts 250°
2026-04-25 02:42 3.63474 -75.99167 17070 ft 253 kts 249°
2026-04-25 02:42 3.62718 -76.00772 16750 ft 256 kts 250°
2026-04-25 02:42 3.61960 -76.02378 16415 ft 257 kts 250°
2026-04-25 02:43 3.61196 -76.04001 16051 ft 259 kts 249°
2026-04-25 02:43 3.60427 -76.05630 15692 ft 259 kts 249°
2026-04-25 02:43 3.59659 -76.07255 15330 ft 259 kts 249°
2026-04-25 02:43 3.58887 -76.08886 14976 ft 261 kts 249°
2026-04-25 02:44 3.58116 -76.10515 14603 ft 257 kts 248°
2026-04-25 02:44 3.57348 -76.12139 14269 ft 258 kts 248°
2026-04-25 02:44 3.56579 -76.13766 13920 ft 260 kts 248°
2026-04-25 02:44 3.55811 -76.15387 13582 ft 258 kts 248°
2026-04-25 02:45 3.55038 -76.17020 13227 ft 260 kts 248°
2026-04-25 02:45 3.54266 -76.18656 12876 ft 261 kts 248°
2026-04-25 02:45 3.53493 -76.20292 12526 ft 261 kts 248°
2026-04-25 02:45 3.52720 -76.21928 12178 ft 260 kts 248°
2026-04-25 02:46 3.51949 -76.23561 11833 ft 260 kts 247°
2026-04-25 02:46 3.51181 -76.25190 11486 ft 259 kts 247°
2026-04-25 02:46 3.50308 -76.26765 11141 ft 261 kts 237°
2026-04-25 02:46 3.49036 -76.28072 10791 ft 266 kts 221°
2026-04-25 02:47 3.47419 -76.28993 10400 ft 273 kts 205°
2026-04-25 02:47 3.45571 -76.29489 10005 ft 278 kts 196°
2026-04-25 02:47 3.43682 -76.29900 9587 ft 279 kts 196°
2026-04-25 02:47 3.41805 -76.30310 9419 ft 272 kts 196°
2026-04-25 02:48 3.39993 -76.30705 9305 ft 261 kts 196°
2026-04-25 02:48 3.38275 -76.31081 9189 ft 246 kts 196°
2026-04-25 02:48 3.36663 -76.31451 9067 ft 230 kts 201°
2026-04-25 02:48 3.35315 -76.32166 8966 ft 215 kts 224°
2026-04-25 02:49 3.34363 -76.33273 8860 ft 209 kts 243°
2026-04-25 02:49 3.33855 -76.34619 8606 ft 209 kts 261°
2026-04-25 02:49 3.33851 -76.36063 8169 ft 209 kts 281°
2026-04-25 02:49 3.34352 -76.37421 7755 ft 210 kts 299°
2026-04-25 02:50 3.35087 -76.38676 7349 ft 209 kts 299°
2026-04-25 02:50 3.35970 -76.39818 6943 ft 210 kts 317°
2026-04-25 02:50 3.37214 -76.40579 6525 ft 213 kts 338°
2026-04-25 02:50 3.38662 -76.40834 6169 ft 214 kts 360°
2026-04-25 02:51 3.40128 -76.40627 5953 ft 212 kts
2026-04-25 02:51 3.41535 -76.40384 5926 ft 202 kts
2026-04-25 02:51 3.42903 -76.40148 5932 ft 198 kts
2026-04-25 02:51 3.44247 -76.39914 5993 ft 194 kts
2026-04-25 02:52 3.45603 -76.39673 5543 ft 202 kts
2026-04-25 02:52 3.46996 -76.39456 4839 ft 207 kts 12°
2026-04-25 02:52 3.48438 -76.39240 4076 ft 213 kts 11°
2026-04-25 02:52 3.49855 -76.38940 3705 ft 200 kts 11°
2026-04-25 02:53 3.51162 -76.38692 3485 ft 182 kts
2026-04-25 02:53 3.52360 -76.38508 3266 ft 167 kts
2026-04-25 02:53 3.53434 -76.38323 3165 ft 145 kts
2026-04-25 02:53 3.54302 -76.38173 3165 ft 114 kts 10°
2026-04-25 02:54 3.54762 -76.38092 3164 ft 46 kts
2026-04-25 02:54 3.55028 -76.38050 3166 ft 17 kts
2026-04-25 02:54 3.55093 -76.38080 3168 ft 7 kts 297°
2026-04-25 02:54 3.55105 -76.38134 3168 ft 9 kts 277°
2026-04-25 02:55 3.55084 -76.38192 3169 ft 11 kts 217°
2026-04-25 02:55 3.55005 -76.38215 3168 ft 13 kts 191°
2026-04-25 02:55 3.54904 -76.38233 3167 ft 16 kts 188°
2026-04-25 02:55 3.54786 -76.38253 3167 ft 18 kts 190°
2026-04-25 02:56 3.54652 -76.38275 3168 ft 21 kts 189°
2026-04-25 02:56 3.54503 -76.38296 3166 ft 23 kts 189°
2026-04-25 02:56 3.54341 -76.38327 3165 ft 25 kts 192°
2026-04-25 02:56 3.54166 -76.38360 3164 ft 25 kts 191°
2026-04-25 02:57 3.54010 -76.38440 3164 ft 27 kts 219°
2026-04-25 02:57 3.53866 -76.38565 3163 ft 15 kts 221°
2026-04-25 02:57 3.53833 -76.38668 3162 ft 18 kts 267°
2026-04-25 02:57 3.53832 -76.38693 3162 ft 3 kts 267°
2026-04-25 02:58 3.53831 -76.38710 3162 ft 0 kts 267°